Christchurch, New Zealand

1:48 PM NZDT on September 24, 2017 (GMT +1300)
Christchurch International

Weather History for NZCH - August, 2013

Change the Weather History Date:

Monday, August 19, 2013

  Actual Average Record
Temperature  
Mean Temperature 50 °F -  
Max Temperature 53 °F 54 °F 64 °F (2006)
Min Temperature 48 °F 36 °F 26 °F (1999)
Degree Days  
Heating Degree Days 14    
Moisture  
Dew Point 47 °F    
Average Humidity 89    
Maximum Humidity 94    
Minimum Humidity 76    
Precipitation  
Precipitation 0.00 in - - ()
Sea Level Pressure  
Sea Level Pressure 30.04 in    
Wind  
Wind Speed 14 mph ()    
Max Wind Speed 25 mph    
Max Gust Speed -    
Visibility 6.2 miles    
Events Rain    
Averages and records for this station are not official NWS values.
T = Trace of Precipitation, MM = Missing Value Source: Averaged Metar Reports

Daily Weather History Graph

Daily Weather History Graph

Search for Another Location

Airport or City:

Trip Planner

Search our weather history database for the weather conditions in past years. The results will help you decide how hot, cold, wet, or windy it might be!

Date:

Astronomy

Aug. 19, 2013 Rise Set
Actual Time 7:18 AM NZST 5:48 PM NZST
Civil Twilight 6:49 AM NZST 6:18 PM NZST
Nautical Twilight 6:15 AM NZST 6:51 PM NZST
Astronomical Twilight 5:42 AM NZST 7:24 PM NZST
Moon 3:42 PM NZST (8/19) 5:23 AM NZST (8/19)
Length of Visible Light 11h 28m
Length of Day
10h 30m
Waxing Gibbous, 94% of the Moon is Illuminated
Aug 19
Waxing Gibbous
Aug 21
Full
Aug 28
Last Quarter
Sep 5
New
Sep 13
First Quarter

Hourly Weather History & Observations

Time (NZST) Temp. Dew Point Humidity Pressure Visibility Wind Dir Wind Speed Gust Speed Precip Events Conditions
12:00 AM 50.0 °F 48.2 °F 94% 30.04 in 6.2 mi East 13.8 mph - N/A Rain Light Rain
12:10 AM 50.0 °F 48.2 °F 94% 30.04 in 6.2 mi East 13.8 mph - N/A Rain Rain
1:00 AM 50.0 °F 48.2 °F 94% 30.04 in 6.2 mi East 15.0 mph - N/A Rain Rain
2:00 AM 50.0 °F 48.2 °F 94% 30.04 in 6.2 mi East 13.8 mph - N/A Rain Rain
3:00 AM 50.0 °F 48.2 °F 94% 30.04 in 6.2 mi East 15.0 mph - N/A Rain Rain
4:00 AM 50.0 °F 48.2 °F 94% 30.04 in 6.2 mi East 12.7 mph - N/A Rain Light Rain
5:00 AM 50.0 °F 48.2 °F 94% 30.04 in 6.2 mi ENE 12.7 mph - N/A   Mostly Cloudy
6:00 AM 50.0 °F 48.2 °F 94% 30.04 in 6.2 mi ENE 12.7 mph - N/A   Mostly Cloudy
7:00 AM 50.0 °F 48.2 °F 94% 30.04 in 6.2 mi ENE 10.4 mph - N/A Rain Light Rain Showers
8:00 AM 50.0 °F 48.2 °F 94% 30.06 in 6.2 mi East 13.8 mph - N/A   Mostly Cloudy
9:00 AM 51.8 °F 48.2 °F 88% 30.06 in 6.2 mi ENE 15.0 mph - N/A   Mostly Cloudy
10:00 AM 51.8 °F 50.0 °F 94% 30.06 in 6.2 mi ENE 17.3 mph - N/A   Mostly Cloudy
11:00 AM 51.8 °F 48.2 °F 88% 30.06 in 6.2 mi ENE 19.6 mph - N/A   Mostly Cloudy
12:00 PM 53.6 °F 46.4 °F 77% 30.06 in 6.2 mi ENE 23.0 mph - N/A   Mostly Cloudy
1:00 PM 53.6 °F 48.2 °F 82% 30.04 in 6.2 mi ENE 25.3 mph - N/A   Mostly Cloudy
2:00 PM 53.6 °F 48.2 °F 82% 30.04 in 6.2 mi ENE 23.0 mph - N/A   Mostly Cloudy
3:00 PM 53.6 °F 46.4 °F 77% 30.01 in 6.2 mi ENE 24.2 mph - N/A   Mostly Cloudy
4:00 PM 51.8 °F 46.4 °F 82% 30.01 in 6.2 mi ENE 19.6 mph - N/A   Mostly Cloudy
5:00 PM 51.8 °F 44.6 °F 76% 30.01 in 6.2 mi ENE 18.4 mph - N/A   Scattered Clouds
6:00 PM 50.0 °F 44.6 °F 82% 30.01 in 6.2 mi ENE 17.3 mph - N/A   Mostly Cloudy
7:00 PM 50.0 °F 46.4 °F 87% 30.04 in 6.2 mi ENE 18.4 mph - N/A   Mostly Cloudy
8:00 PM 48.2 °F 46.4 °F 93% 30.04 in 6.2 mi ENE 17.3 mph - N/A   Mostly Cloudy
9:00 PM 48.2 °F 46.4 °F 93% 30.04 in 6.2 mi NE 13.8 mph - N/A   Scattered Clouds
10:00 PM 48.2 °F 46.4 °F 93% 30.04 in 6.2 mi NE 15.0 mph - N/A   Scattered Clouds
11:00 PM 50.0 °F 46.4 °F 87% 30.04 in 6.2 mi NE 15.0 mph - N/A   Mostly Cloudy